Location: New Town
(33.2710°N, 90.7534°W)
Time: 20:21:09
(UTC+00:00)

Envisat - Pass Details

Date: 20 April 2021
Orbit: 764 x 766 km, 98.1° (Epoch: 06 May)

Event Time Altitude Azimuth Distance (km) Brightness Sun altitude
Rises 10:19:06 0° 35° (NE) 3,232 7.3 -14.1°
Reaches altitude 10° 10:22:26 10° 59° (ENE) 2,301 6.9 -13.5°
Maximum altitude 10:25:17 15° 93° (E) 1,971 6.1 -13.0°
Drops below altitude 10° 10:28:06 10° 127° (SE) 2,293 5.9 -12.4°
Sets 10:31:25 0° 151° (SSE) 3,214 6.3 -11.8°
